Holland, MI

10:50 PM EDT on April 26, 2018 (GMT -0400)
Tulip City

Weather History for KBIV - September, 2012

Change the Weather History Date:

Friday, September 7, 2012

  Actual Average Record
Temperature  
Mean Temperature 69 °F 66 °F  
Max Temperature 81 °F 77 °F 95 °F (1960)
Min Temperature 57 °F 56 °F 40 °F (1986)
Degree Days  
Heating Degree Days 0 2  
Month to date heating degree days 0 9  
Since 1 July heating degree days 15 24  
Cooling Degree Days 4 3  
Month to date cooling degree days 71 25  
Year to date cooling degree days 1051 643  
Growing Degree Days 18 (Base 50)    
Moisture  
Dew Point 57 °F    
Average Humidity 69    
Maximum Humidity 93    
Minimum Humidity 45    
Precipitation  
Precipitation 0.05 in 0.10 in 0.54 in (1989)
Month to date precipitation 0.59 0.77  
Year to date precipitation 19.89 23.98  
Sea Level Pressure  
Sea Level Pressure 29.88 in    
Wind  
Wind Speed 1 mph (SSW)    
Max Wind Speed 17 mph    
Max Gust Speed 31 mph    
Visibility 7 miles    
Events Fog , Rain    
T = Trace of Precipitation, MM = Missing Value Source: NWS Daily Summary

Daily Weather History Graph

Daily Weather History Graph

Search for Another Location

Airport or City:

Astronomy

Sep. 07, 2012 Rise Set
Actual Time 7:16 AM EDT 8:07 PM EDT
Civil Twilight 6:47 AM EDT 8:36 PM EDT
Nautical Twilight 6:13 AM EDT 9:10 PM EDT
Astronomical Twilight 5:37 AM EDT 9:45 PM EDT
Moon 11:52 PM EDT (9/7) 2:17 PM EDT (9/7)
Length of Visible Light 13h 48m
Length of Day
12h 51m
Waning Gibbous, 58% of the Moon is Illuminated
Sep 7
Waning Gibbous
Sep 8
Last Quarter
Sep 15
New
Sep 22
First Quarter
Sep 29
Full

Hourly Weather History & Observations

Time (EDT) Temp. Dew Point Humidity Pressure Visibility Wind Dir Wind Speed Gust Speed Precip Events Conditions
12:12 AM 62.6 °F 59.0 °F 88% 29.94 in 2.5 mi Calm Calm - N/A   Partly Cloudy
12:14 AM 62.6 °F 59.0 °F 88% 29.94 in 1.2 mi Calm Calm - N/A   Partly Cloudy
12:16 AM 62.6 °F 59.0 °F 88% 29.94 in 0.8 mi Calm Calm - N/A   Mist
12:25 AM 60.8 °F 57.2 °F 88% 29.94 in 1.2 mi Calm Calm - N/A   Partly Cloudy
12:32 AM 60.8 °F 57.2 °F 88% 29.94 in 0.8 mi Calm Calm - N/A   Mist
12:40 AM 60.8 °F 57.2 °F 88% 29.94 in 0.5 mi Calm Calm - N/A Fog Fog
12:53 AM 57.9 °F 55.9 °F 93% 29.93 in 0.8 mi Calm Calm - N/A   Mist
1:03 AM 60.8 °F 57.2 °F 88% 29.93 in 1.2 mi Calm Calm - N/A   Scattered Clouds
1:06 AM 59.0 °F 57.2 °F 94% 29.93 in 2.0 mi Calm Calm - N/A   Scattered Clouds
1:13 AM 57.2 °F 55.4 °F 94% 29.93 in 10.0 mi Calm Calm - N/A   Partly Cloudy
1:32 AM 59.0 °F 57.2 °F 94% 29.93 in 1.8 mi Calm Calm - N/A   Clear
1:37 AM 59.0 °F 55.4 °F 88% 29.93 in 1.0 mi Calm Calm - N/A   Mist
1:42 AM 59.0 °F 57.2 °F 94% 29.93 in 0.8 mi Calm Calm - N/A   Mist
1:53 AM 57.0 °F 55.0 °F 93% 29.93 in 1.2 mi Calm Calm - N/A   Scattered Clouds
2:00 AM 57.2 °F 55.4 °F 94% 29.93 in 1.8 mi Calm Calm - 0.01 in   Partly Cloudy
2:04 AM 59.0 °F 55.4 °F 88% 29.94 in 3.0 mi Calm Calm - 0.01 in   Partly Cloudy
2:53 AM 59.0 °F 57.0 °F 93% 29.91 in 10.0 mi Calm Calm - 0.01 in   Clear
3:53 AM 61.0 °F 57.9 °F 90% 29.88 in 10.0 mi Calm Calm - N/A   Clear
4:53 AM 57.9 °F 55.0 °F 90% 29.89 in 10.0 mi ESE 3.5 mph - N/A   Clear
5:53 AM 60.1 °F 57.0 °F 90% 29.89 in 10.0 mi Calm Calm - N/A   Clear
6:53 AM 61.0 °F 57.0 °F 87% 29.86 in 10.0 mi Variable 6.9 mph - N/A   Partly Cloudy
7:53 AM 62.1 °F 57.9 °F 86% 29.91 in 10.0 mi Calm Calm - N/A   Clear
8:53 AM 64.0 °F 59.0 °F 84% 29.92 in 10.0 mi Calm Calm - N/A   Clear
9:53 AM 66.0 °F 60.1 °F 81% 29.92 in 10.0 mi Calm Calm - N/A   Clear
10:53 AM 66.9 °F 61.0 °F 81% 29.89 in 10.0 mi Calm Calm - N/A   Overcast
11:53 AM 66.9 °F 62.1 °F 84% 29.89 in 10.0 mi SSE 3.5 mph - N/A   Overcast
12:53 PM 70.0 °F 61.0 °F 73% 29.86 in 10.0 mi SE 3.5 mph - N/A   Overcast
1:53 PM 77.0 °F 59.0 °F 54% 29.82 in 10.0 mi SSE 8.1 mph - N/A   Partly Cloudy
2:53 PM 79.0 °F 57.0 °F 47% 29.80 in 10.0 mi South 6.9 mph - N/A   Scattered Clouds
3:53 PM 79.0 °F 55.9 °F 45% 29.77 in 10.0 mi SSW 4.6 mph - N/A   Clear
4:53 PM 75.9 °F 60.1 °F 58% 29.75 in 10.0 mi West 5.8 mph - N/A   Mostly Cloudy
5:53 PM 73.9 °F 59.0 °F 59% 29.75 in 10.0 mi West 6.9 mph - N/A   Overcast
6:53 PM 70.0 °F 63.0 °F 78% 29.75 in 10.0 mi NNW 10.4 mph 21.9 mph 0.01 in Rain Light Rain
7:53 PM 62.1 °F 55.0 °F 78% 29.78 in 10.0 mi North 13.8 mph 24.2 mph 0.00 in Rain Light Rain
8:53 PM 61.0 °F 54.0 °F 78% 29.78 in 10.0 mi Variable 4.6 mph - 0.00 in   Overcast
9:53 PM 61.0 °F 54.0 °F 78% 29.82 in 10.0 mi Calm Calm - 0.01 in Rain Light Rain
10:53 PM 59.0 °F 55.0 °F 87% 29.82 in 10.0 mi NNW 3.5 mph - 0.02 in   Mostly Cloudy
11:53 PM 59.0 °F 55.0 °F 87% 29.81 in 10.0 mi Calm Calm - N/A   Mostly Cloudy